Location: Buisson
(44.2787°N, 4.9969°E)
Time: 08:09:10
(UTC+00:00)

USA 234 - Pass Details

Date: 18 April 2021
Orbit: 1102 x 1105 km, 123.0° (Epoch: 18 April)

Event Time Altitude Azimuth Distance (km) Brightness Sun altitude
Rises 01:18:46 0° 51° (NE) 3,927 7.1 -30.4°
Reaches altitude 10° 01:21:18 10° 54° (NE) 2,966 6.3 -30.2°
Maximum altitude 01:27:47 64° 136° (SE) 1,212 3.3 -29.6°
Enters shadow 01:28:00 63° 146° (SE) 1,215 3.2 -29.6°
